Location: Mohawk View
(42.7837°N, 73.7885°W)
Time: 07:10:24
(UTC+00:00)

Cosmos 1934 Rocket - Pass Details

Date: 17 June 2021
Orbit: 939 x 998 km, 83.0° (Epoch: 03 August)

Event Time Altitude Azimuth Distance (km) Brightness Sun altitude
Rises 01:14:07 0° 350° (N) 3,618 7.9 -6.4°
Reaches altitude 10° 01:16:36 10° 350° (N) 2,674 7.2 -6.8°
Maximum altitude 01:22:42 78° 265° (W) 979 4.2 -7.6°
Drops below altitude 10° 01:28:51 10° 180° (S) 2,692 5.9 -8.5°
Sets 01:31:21 0° 179° (S) 3,643 6.6 -8.8°
